This demonstration page uses our WeatherBlox Daily Observations layout. Learn more.

Left ArrowRight Arrow

39.01783, -85.05884

Hourly Observations for December 22, 2016

Temp ( °F °C ) Dew Point ( °F °C ) Humidity (%) Winds ( mph kmh ) Pressure ( in mb ) Visibility ( mi km ) Precip ( " mm )
12:52 am 00:52 Clear 37 2.8 28 -2.2 70 70 SW 7 11 30.05 1018 10 16 N/A
1:52 am 01:52 Clear 35 1.7 27 -2.8 72 72 SSW 6 9 30.05 1018 10 16 N/A
2:52 am 02:52 Mostly Clear 36 2.2 26 -3.3 67 67 WSW 6 9 30.07 1018 10 16 N/A
3:52 am 03:52 Clear 35 1.7 26 -3.3 70 70 W 12 19 30.09 1019 10 16 N/A
4:52 am 04:52 Clear 33 0.6 26 -3.3 75 75 W 7 11 30.10 1019 10 16 N/A
5:52 am 05:52 Mostly Clear 31 -0.6 25 -3.9 79 79 W 8 13 30.12 1020 10 16 N/A
6:52 am 06:52 Mostly Clear 28 -2.2 24 -4.4 85 85 W 9 15 30.16 1021 9 14 N/A
7:52 am 07:52 Mostly Clear 27 -2.8 24 -4.4 89 89 WNW 8 13 30.19 1023 9 14 N/A
8:52 am 08:52 Cloudy 33 0.6 28 -2.2 82 82 W 8 13 30.23 1024 9 14 N/A
9:52 am 09:52 Cloudy 35 1.7 29 -1.7 78 78 W 7 11 30.27 1025 9 14 N/A
10:52 am 10:52 Cloudy 37 2.8 30 -1.1 76 76 WNW 9 15 30.30 1026 10 16 N/A
11:52 am 11:52 Cloudy 39 3.9 29 -1.7 67 67 WNW 10 17 30.31 1027 10 16 N/A
12:25 pm 12:25 Cloudy 38 3.3 28 -2.2 68 68 WNW 10 17 30.33 1027 10 16 N/A
12:52 pm 12:52 Cloudy 39 3.9 27 -2.8 62 62 NNW 17 28 30.32 1027 10 16 N/A
1:28 pm 13:28 Mostly Cloudy 40 4.4 27 -2.8 60 60 NNW 14 22 30.33 1027 10 16 N/A
1:52 pm 13:52 Mostly Cloudy 42 5.6 28 -2.2 58 58 NW 10 17 30.32 1027 10 16 N/A
2:52 pm 14:52 Partly Cloudy 42 5.6 27 -2.8 55 55 N 8 13 30.33 1027 10 16 N/A
3:52 pm 15:52 Partly Cloudy 42 5.6 27 -2.8 55 55 WNW 6 9 30.36 1028 10 16 N/A
4:52 pm 16:52 Partly Cloudy 39 3.9 27 -2.8 62 62 WNW 6 9 30.38 1029 10 16 N/A
5:52 pm 17:52 Mostly Clear 35 1.7 26 -3.3 70 70 WNW 6 9 30.40 1029 10 16 N/A
6:52 pm 18:52 Clear 33 0.6 26 -3.3 75 75 W 6 9 30.42 1030 10 16 N/A
7:52 pm 19:52 Clear 28 -2.2 25 -3.9 88 88 N N/A 30.43 1031 10 16 N/A
8:52 pm 20:52 Clear 29 -1.7 25 -3.9 85 85 N N/A 30.43 1030 8 13 N/A
9:52 pm 21:52 Clear 29 -1.7 25 -3.9 85 85 N N/A 30.43 1031 7 11 N/A
10:52 pm 22:52 Mostly Clear with Mist and Fog 27 -2.8 23 -5 85 85 N N/A 30.43 1031 6 10 N/A
11:52 pm 23:52 Cloudy with Mist and Fog 26 -3.3 24 -4.4 92 92 N N/A 30.44 1031 4 6 N/A

Powered by AerisWeather